Regional Weather Roundup
Issued by NWS Kansas City/Pleasant Hill, MO

Home | Current Version | Previous Version | Text Only | Print | Product List | Glossary On
Versions: 1 2 3 4 5 6 7 8 9 10 11 12 13 14 15 16 17 18 19 20 21 22 23 24 25 26 27 28 29 30 31 32 33 34 35 36 37 38 39 40 41 42 43 44 45 46 47 48 49 50
000
ASUS43 KEAX 260210
RWREAX

WEATHER ROUNDUP FOR EASTERN KANSAS AND NORTHWEST MISSOURI
NATIONAL WEATHER SERVICE KANSAS CITY/PLEASANT HILL MO
800 PM CST TUE NOV 25 2014

KSZ040-057-103>105-MOZ028-029-037-043-260300-
...KANSAS CITY METROPOLITAN AREA...

CITY           SKY/WX    TMP DP  RH WIND       PRES   REMARKS
K.C. INTL      CLOUDY    37  21  52 S13       30.05F WCI  29
K.C. DOWNTOWN  MOCLDY    38  19  46 S8        30.07F WCI  32
LEES SUMMIT    MOCLDY    36  15  42 S8        30.08F WCI  30
OLATHE - IXD   MOCLDY    35  21  56 S8        30.06F WCI  29
OLATHE - OJC   MOCLDY    35  21  56 S8        30.06F WCI  29
LAWRENCE       MOCLDY    36  22  56 SE8       30.05F WCI  30

$$

MOZ001>008-011>017-020>025-030>033-038>040-044>046-053-054-260300-
...NORTHERN AND CENTRAL MISSOURI...

CITY           SKY/WX    TMP DP  RH WIND       PRES   REMARKS
ST. JOSEPH     CLOUDY    35  21  56 S8        30.04F WCI  29
MOSBY            N/A     34  19  55 SE5       30.07F WCI  30
WARRENSBURG    PTCLDY    32  18  55 S5        30.10F WCI  27
WHITEMAN AFB   CLEAR     31  17  57 S7        30.10S WCI  24
CLINTON        PTCLDY    32  21  64 CALM      30.13R
SEDALIA        PTCLDY    30  18  60 S6        30.12S WCI  24
WARSAW         NOT AVBL
MARSHALL       PTCLDY    34  21  60 SE5       30.12S WCI  30
CHILLICOTHE      N/A     31  16  54 S3        30.10F
MOBERLY        CLEAR     28  16  59 SE5       30.13S WCI  23
KIRKSVILLE     CLEAR     25  18  74 SE6       30.11S WCI  18

$$

MOZ041-047>049-056>058-063>065-088>090-097-260300-
...EASTERN AND SOUTHERN MISSOURI...

CITY           SKY/WX    TMP DP  RH WIND       PRES   REMARKS
ST. LOUIS INTL CLEAR     32  22  66 CALM      30.18R
SPIRIT OF STL  CLEAR     27  23  85 CALM      30.17S
COLUMBIA       CLEAR     31  15  52 SE6       30.13S WCI  25
JEFFERSON CITY CLEAR     28  19  69 CALM      30.15F
MEXICO         CLEAR     28  27  93 SE5       30.14S WCI  23
ROLLA          CLEAR     27  18  69 SE5       30.13S WCI  22
LEBANON        CLEAR     30  19  64 CALM      30.13S
OSAGE BEACH    CLEAR     28  16  59 SE3       30.13F
SPRINGFIELD    CLEAR     26  19  74 S5        30.12F WCI  20
BRANSON        CLEAR     32  19  59 S3        30.15S
NEVADA         MOCLDY    32  23  69 S7        30.12S WCI  26
JOPLIN         MOCLDY    36  20  52 SE7       30.12F WCI  30
WEST PLAINS    CLEAR     29  19  66 CALM      30.16S

$$

IAZ060-094-KSZ022-034>040-054-083-096-NEZ052-066-093-260300-
...KANSAS...SOUTHEAST NEBRASKA AND IOWA...

CITY           SKY/WX    TMP DP  RH WIND       PRES   REMARKS
TOPEKA         CLOUDY    42  22  44 S8        30.04S
MANHATTAN      CLOUDY    45  24  43 S9        29.98F
EMPORIA        CLOUDY    40  24  53 S9        30.03S WCI  34
CHANUTE        CLOUDY    38  23  55 S8        30.08F WCI  32
WICHITA        CLOUDY    44  26  49 S16       30.01F
OMAHA          CLOUDY    39  25  57 S10       29.93F WCI  32
LINCOLN        CLOUDY    42  25  50 S9        29.90F
FALLS CITY     CLOUDY    37  23  56 S10       29.98F WCI  30
LAMONI         MOCLDY    30  16  56 S7        30.04S WCI  23
DES MOINES     PTCLDY    30  12  47 SE10      30.04F WCI  21

$$




USA.gov is the U.S. government's official web portal to all federal, state and local government web resources and services.